Regional Weather Roundup
Issued by NWS Goodland, KS

Home | Current Version | Previous Version | Graphics & Text | Print | Product List | Glossary On
Versions: 1 2 3 4 5 6 7 8 9 10 11 12 13 14 15 16 17 18 19 20 21 22 23 24 25 26 27 28 29 30 31 32 33 34 35 36 37 38 39 40 41 42 43 44 45 46 47 48 49 50
000
ASUS43 KGLD 180308
RWRGLD

GOODLAND FORECAST AREA HOURLY WEATHER ROUNDUP
NATIONAL WEATHER SERVICE GOODLAND KS
800 PM MST WED DEC 17 2014

...OFFICIAL OBSERVATIONS...

CITY           SKY/WX    TMP DP  RH WIND       PRES   REMARKS
GOODLAND KS    FOG       24  23  96 E8        30.05S VSB 1/2
HILL CITY KS   CLOUDY    27  22  81 E8        30.14S
IMPERIAL NEB   CLOUDY    24  21  88 SE8       30.07S FOG
MCCOOK NEB     CLOUDY    25  23  92 E6        30.12S FOG
AKRON CO       FOG       22  21  96 S10       29.98R VSB 1/2 WCI  11
BURLINGTON CO  FOG       25  22  88 E8        30.02R VSB 1/4
LIMON CO       CLOUDY    23  21  92 SE7       29.97R
$$

...UNOFFICIAL OBSERVATIONS...

CITY           SKY/WX    TMP DP  RH WIND       PRES   REMARKS
COLBY KS       CLOUDY    27  27 100 E3        30.08S FOG
GOVE KS          N/A     28  32 100 MISG        N/A
NORTON KS      CLOUDY    25  21  86 E6        30.13R
SHARON SPRINGS   N/A     25  24  95 CALM        N/A
$$


USA.gov is the U.S. government's official web portal to all federal, state and local government web resources and services.